Location: Assche-ter-Heiden
(50.9174°N, 4.1574°E)
Time: 21:52:19
(UTC+00:00)

Cosmos 1470 - Pass Details

Date: 20 January 2020
Orbit: 521 x 543 km, 82.5° (Epoch: 16 February)

Event Time Altitude Azimuth Distance (km) Brightness Sun altitude
Exits shadow 05:42:12 23° 334° (NNW) 1,193 4.2 -17.4°
Drops below altitude 10° 05:44:07 10° 354° (N) 1,823 5.3 -17.1°
Sets 05:46:27 0° 4° (N) 2,721 6.3 -16.8°
